Tracking 19920 objects as of 15-Oct-2019
HD Live streaming from Space Station
objects crossing your sky now

ECHO 1 DEB (METAL OBJ)

Track ECHO 1 DEB (METAL OBJ) now!
10-day predictions


NORAD ID: 51
Int'l Code: 1960-009C
Perigee: 1,520.9 km
Apogee: 1,693.4 km
Inclination: 47.2 °
Period: 118.2 minutes
Semi major axis: 7978 km
RCS: 0.6323 m2 (medium)
Launch date: August 12, 1960
Source: United States (US)
Launch site: AIR FORCE EASTERN TEST RANGE (AFETR)

Note: This is SATELLITE DEBRIS
aabbcc
Your satellite tracking list
Your tracking list is empty




NASA's NSSDC Master Catalog

Two Line Element Set (TLE):
1    51U 60009C   19287.32387573 -.00000167 +00000-0 -79216-3 0  9990
2    51 047.2153 031.9704 0108104 149.0491 211.6725 12.18276554633968
Source of the keplerian elements: AFSPC